Home > Weather > Rotterdam > Past weeks

Flag for Netherlands Weather for the Past 2 Weeks in Rotterdam, Netherlands

Now
59 °F

Clear.


Feels Like: 59 °F
Forecast: 45 / 64 °F
Wind: 5 mph from North

Location: Rotterdam Zestienhoven Airport

Current Time: May 4, 2016 at 5:42:26 PM

Latest Report: May 4, 2016 at 4:55 PM


Visibility: N/A

Pressure: 30.36 "Hg

Humidity: 48%

Dew Point: 39 °F

Location of RotterdamLocation

Historic Weather in Rotterdam — Graph

°F

Rotterdam Temperature Yesterday

Maximum temperature yesterday: 54 °F (at 12:55 AM)
Minimum temperature yesterday: 43 °F (at 10:55 PM)
Average temperature yesterday: 50 °F

High & Low Weather Summary for the Past Weeks

 TemperatureHumidityPressure
High61 °F (Apr 21, 3:55 PM)100% (Apr 20, 1:55 AM)30.48 "Hg (Apr 20, 1:55 AM)
Low34 °F (Apr 25, 2:25 AM)42% (May 2, 12:25 PM)29.47 "Hg (Apr 26, 5:55 AM)
Average46 °F75%30.06 "Hg
* Reported Apr 19 4:25 PM — May 4 4:25 PM, Rotterdam, Weather by CustomWeather, © 2016

Note: Actual official high and low records may vary slightly from our data, if they occured in-between our weather recording intervals... More about our weather records

Advertising

Rotterdam Weather History for the Previous 24 Hours

Scroll right to see more
 ConditionsComfort  
Time TempWeatherWind HumidityBarometerVisibility
4:25 PM
Wed, May 4
59 °FClear.6 mph48%30.36 "HgN/A
3:55 PM59 °FClear.5 mph51%30.36 "HgN/A
3:25 PM57 °FClear.7 mph51%30.36 "HgN/A
2:55 PM59 °FClear.2 mph48%30.36 "HgN/A
1:55 PM61 °FClear.6 mph48%30.39 "HgN/A
12:55 PM57 °FPassing clouds.7 mph51%30.39 "HgN/A
12:25 PM57 °FClear.7 mph51%30.39 "HgN/A
11:55 AM57 °FClear.9 mph55%30.39 "HgN/A
11:25 AM55 °FClear.9 mph59%30.39 "HgN/A
10:55 AM55 °FRefreshingly cool.9 mph55%30.39 "HgN/A
9:55 AM54 °FClear.9 mph63%30.39 "HgN/A
9:25 AM52 °FCool.8 mph67%30.39 "HgN/A
8:55 AM52 °FCool.8 mph72%30.39 "HgN/A
8:25 AM50 °FClear.5 mph71%30.39 "HgN/A
7:55 AM48 °FCool.5 mph82%30.39 "HgN/A
6:55 AM41 °FClear.3 mph93%30.36 "HgN/A
6:25 AM41 °FQuite cool.2 mph93%30.36 "HgN/A
5:55 AM41 °FQuite cool.3 mph93%30.36 "HgN/A
5:25 AM41 °FClear.3 mph93%30.36 "HgN/A
4:55 AM41 °FClear.2 mph93%30.36 "HgN/A
4:25 AM41 °FQuite cool.1 mph93%30.36 "HgN/A
3:55 AM41 °FClear.5 mph100%30.36 "HgN/A
3:25 AM41 °FClear.5 mph93%30.36 "HgN/A
2:55 AM41 °FClear.1 mph100%30.36 "HgN/A
2:25 AM41 °FQuite cool.1 mph100%30.36 "HgN/A
1:55 AM41 °FQuite cool.3 mph100%30.36 "HgN/A
12:55 AM43 °FQuite cool.1 mph93%30.36 "HgN/A
11:55 PM
Tue, May 3
43 °FClear.1 mph87%30.36 "HgN/A
11:25 PM43 °FQuite cool.2 mph87%30.36 "HgN/A
10:55 PM43 °FQuite cool.3 mph87%30.36 "HgN/A
10:25 PM46 °FCool.2 mph82%30.36 "HgN/A
9:55 PM46 °FCool.2 mph82%30.33 "HgN/A
9:25 PM46 °FCool.3 mph82%30.33 "HgN/A
8:55 PM48 °FCool.5 mph76%30.33 "HgN/A
8:25 PM52 °FCool.5 mph67%30.33 "HgN/A
7:55 PM52 °FCool.7 mph67%30.33 "HgN/A
7:25 PM52 °FPassing clouds.7 mph62%30.30 "HgN/A
6:55 PM52 °FClear.7 mph58%30.30 "HgN/A
6:25 PM54 °FCool.10 mph58%30.30 "HgN/A
5:55 PM54 °FBroken clouds.10 mph58%30.30 "HgN/A
5:25 PM54 °FScattered clouds.10 mph58%30.30 "HgN/A
Weather by CustomWeather, © 2016

See weather overviewHow to use our weather pages